Location: Observatory
(52.1446°N, 0.4624°W)
Time: 15:50:34
(UTC+01:00)

ISS - Pass Details

Date: 24 May 2020
Orbit: 417 x 420 km, 51.6° (Epoch: 25 May)

Event Time Altitude Azimuth Distance (km) Brightness Sun altitude
Rises 23:41:40 0° 282° (WNW) 2,369 0.5 -15.0°
Reaches altitude 10° 23:43:50 10° 275° (W) 1,503 -0.7 -15.1°
Maximum altitude 23:47:01 39° 205° (SSW) 647 -3.2 -15.2°
Enters shadow 23:47:37 35° 177° (S) 697 -3.2 -15.2°
